[[{"header":{"parameterUnit":"m.s-1","parameterCategory":1,"la1":30.2991,"la2":30.254,"lo1":-89.0895,"lo2":-89.0444,"dy":0.0017,"dx":0.0017,"nx":28,"ny":28,"refTime":"2024-09-28T03:00:00:Z","depth":0,"parameterNumber":2,"parameterNumberName":"U-component_of_WINDS"},"data":[0,0,0,0,0,0,0,0,0,0,0,0,0,0,0,0,0,0,0,0,0,0,0,0,0,0,0,0,0,0,0,0,0,0,0,0,0,0,0,0,0,0,0,0,0,0,0,0,0,0,0,0,0,0,0,0,0,0,6.2002,6.2005,0,6.2265,6.2268,6.2271,6.2227,6.2223,6.2218,6.2214,6.2487,6.2498,6.251,0,0,0,0,0,0,0,0,0,0,0,0,0,6.1464,6.1474,6.2002,6.2005,6.2009,6.2264,6.2268,6.2272,6.2228,6.2222,6.2217,6.2212,6.2483,6.2497,6.2511,0,0,0,0,0,0,0,0,0,0,0,0,0,6.1709,6.1477,6.2002,6.2018,6.2022,6.2264,6.2268,6.2273,6.2229,6.2222,6.2215,6.2209,6.2479,6.2495,6.2513,6.2757,0,0,6.2565,6.2573,0,0,0,0,0,0,0,0,6.1696,6.1729,6.2012,6.2017,6.2022,6.2206,6.2178,6.2435,6.2231,6.2151,6.2214,6.2206,6.2399,6.2423,6.2487,6.2769,6.2781,6.2567,6.2577,6.2585,6.259,0,0,0,0,0,0,0,6.1679,6.1718,6.2106,6.2016,6.2022,6.2012,6.2039,6.2227,6.231,6.2157,6.2154,6.2186,6.2401,6.2471,6.2493,6.2785,6.2566,6.2582,6.2592,6.2599,6.3275,6.3283,0,0,0,0,0,0,6.1656,6.1704,6.2098,6.2114,6.1838,6.2027,6.2058,6.2154,6.2308,6.2325,6.2191,6.2183,6.2444,6.2473,6.2503,6.2795,6.2585,6.2601,6.2611,6.3268,6.3277,6.3285,0,0,0,0,0,0,6.1645,6.1692,6.2087,6.1908,6.1958,6.2044,6.2152,6.2163,6.2232,6.2334,6.2349,6.2247,6.244,6.2478,6.2692,6.2804,6.2609,6.2624,6.3259,6.3271,6.3281,6.3383,0,0,0,0,0,0,6.163,6.1688,6.1782,6.1911,6.1967,6.2272,6.2159,6.2173,6.2262,6.2253,6.239,6.2407,6.2438,6.2667,6.2709,6.2824,6.2638,6.3249,6.3264,6.3278,6.337,6.3396,6.3419,0,0,0,0,0,6.1611,6.1802,6.1787,6.1835,6.2086,6.2279,6.2312,6.2342,6.2271,6.2365,6.243,6.2402,6.2785,6.2689,6.2737,6.2858,6.3242,6.326,6.3277,6.3359,6.3391,6.3418,0,0,0,0,0,0,6.1687,6.1819,6.1804,6.2043,6.2149,6.2271,6.2391,6.2376,6.2507,6.2493,6.2527,6.2558,6.2774,6.2838,6.2729,6.31,6.3004,6.3031,6.305,6.3082,6.3106,6.3085,6.2652,0,0,0,0,0,6.1731,6.1875,6.1984,6.2184,6.2238,6.2306,6.2391,6.2405,6.2517,6.2563,6.2644,6.2755,6.2899,6.2994,6.3134,6.3379,6.3407,6.3486,6.3511,6.353,6.3553,6.3683,6.3719,6.3341,6.3341,6.3341,0,0,6.1824,6.1914,6.2004,6.2201,6.2286,6.2434,6.2344,6.2507,6.2617,6.2588,6.2793,6.2856,6.2983,6.3212,6.3317,6.3272,6.3663,6.3552,6.3567,6.3579,6.3705,6.374,6.3772,6.3353,6.3351,6.3349,0,0,6.2069,6.2154,6.2327,6.2412,6.254,6.2583,6.2625,6.2749,6.2788,6.2994,6.2975,6.3107,6.3357,6.3446,6.3524,6.3799,6.3777,6.3844,6.3971,6.4098,6.4127,6.4154,6.4248,6.4282,6.3867,6.3867,6.3867,0,6.217,6.2392,6.2419,6.2582,6.2668,6.2646,6.2821,6.2903,6.3071,6.3131,6.3077,6.3387,6.3471,6.3719,6.3785,6.3851,6.3898,6.3828,6.4121,6.4148,6.4173,6.4263,6.4299,6.3874,6.3873,6.3872,6.3872,0,6.2507,6.2661,6.2786,6.2945,6.3045,6.3214,6.3266,6.3364,6.3369,6.3417,6.3625,6.3725,6.3881,6.3942,6.395,6.419,6.4157,6.4113,6.4016,6.4215,6.43,6.4336,6.3884,6.3881,6.3879,6.3877,0,0,6.2809,6.2977,6.3022,6.3092,6.323,6.335,6.3516,6.3667,6.3749,6.3866,6.4004,6.4214,6.4172,6.426,6.4278,6.4389,6.4595,6.433,6.4333,6.4373,6.4863,6.4893,6.4933,6.4582,6.4589,6.4595,6.4851,0,6.3064,6.3356,6.3383,6.3645,6.3786,6.3766,6.391,6.401,6.4059,6.4186,6.4241,6.4387,6.4323,6.4375,6.4485,6.4547,6.4694,6.453,6.471,6.4716,6.4676,6.4978,6.5013,6.525,6.4885,6.489,6.4895,0,6.3402,6.3523,6.3798,6.3912,6.3972,6.4102,6.4239,6.4362,6.4474,6.4501,6.4598,6.4599,6.477,6.4667,6.4901,6.4789,6.4864,6.4906,6.4916,6.4932,6.4816,6.5,6.5327,6.5361,6.4948,6.4944,6.494,0,6.3589,6.3823,6.4016,6.4077,6.4216,6.4306,6.4368,6.4473,6.4561,6.4683,6.4739,6.488,6.4957,6.5065,6.5104,6.5026,6.5335,6.5237,6.5361,6.536,6.5425,6.542,6.5765,6.5479,6.5478,6.5478,6.5477,0,6.387,6.4038,6.4101,6.422,6.4407,6.4436,6.4621,6.4679,6.4771,6.49,6.4893,6.5015,6.5059,6.5188,6.522,6.5406,6.5442,6.5468,6.5474,6.5467,6.5463,6.5515,6.5499,6.5487,6.5485,6.5483,6.5482,0,6.4111,6.416,6.4369,6.4482,6.4514,6.4646,6.4743,6.4857,6.4902,6.5065,6.5106,6.5178,6.5329,6.5378,6.5562,6.5582,6.5798,6.5792,6.576,6.576,6.588,6.5866,6.6269,6.6321,6.6003,6.6006,6.6008,0,6.4286,6.4414,6.4539,6.4624,6.4688,6.4826,6.4914,6.4948,6.5039,6.5174,6.5271,6.542,6.554,6.5781,6.5851,6.599,6.5984,6.6115,6.6005,6.5993,6.5982,6.5972,6.5984,6.6135,6.6139,6.6142,6.6144,0,6.459,6.4606,6.4733,6.4867,6.4971,6.508,6.5184,6.5254,6.5303,6.5406,6.5558,6.5651,6.5836,6.5982,6.6123,6.6187,6.6174,6.6178,6.6213,6.6206,6.6181,6.6192,6.5813,6.6168,6.6166,6.6164,6.6163,6.6162,6.4801,6.4912,6.5015,6.5156,6.5237,6.5333,6.5444,6.5502,6.5629,6.578,6.5793,6.5956,6.6062,6.6249,6.632,6.6447,6.641,6.6463,6.6475,6.6487,6.6494,6.6162,6.6474,6.6473,6.6473,6.6472,6.6472,0,6.5101,6.5165,6.5294,6.5438,6.5547,6.5523,6.5636,6.5729,6.5872,6.5971,6.6088,6.6261,6.6402,6.6481,6.6622,6.6709,6.6706,6.6744,6.6737,6.6751,6.6522,6.6475,6.6744,6.6744,6.6744,6.6744,6.6744,6.6744,6.5269,6.5454,6.5483,6.5707,6.5771,6.5929,6.5995,6.6084,6.6162,6.6354,6.647,6.652,6.6611,6.6757,6.6885,6.6904,6.6955,6.6997,6.7012,6.6796,6.6768,6.6741,6.6697,6.7009,6.7009,6.7231,6.7233,6.7234]},{"header":{"parameterUnit":"m.s-1","parameterCategory":1,"la1":30.2991,"la2":30.254,"lo1":-89.0895,"lo2":-89.0444,"dy":0.0017,"dx":0.0017,"nx":28,"ny":28,"refTime":"2024-09-28T03:00:00:Z","depth":0,"parameterNumber":3,"parameterNumberName":"V-component_of_WINDS"},"data":[0,0,0,0,0,0,0,0,0,0,0,0,0,0,0,0,0,0,0,0,0,0,0,0,0,0,0,0,0,0,0,0,0,0,0,0,0,0,0,0,0,0,0,0,0,0,0,0,0,0,0,0,0,0,0,0,0,0,2.2952,2.2952,0,2.2971,2.2971,2.2972,2.2913,2.2911,2.2909,2.2908,2.2928,2.293,2.2932,0,0,0,0,0,0,0,0,0,0,0,0,0,2.2862,2.2864,2.2952,2.2952,2.2952,2.2971,2.2971,2.2972,2.2913,2.2911,2.2909,2.2907,2.2927,2.2929,2.2932,0,0,0,0,0,0,0,0,0,0,0,0,0,2.2894,2.2865,2.2952,2.2925,2.2923,2.2971,2.2971,2.2972,2.2914,2.2911,2.2908,2.2906,2.2926,2.2929,2.2932,2.3007,0,0,2.2943,2.2944,0,0,0,0,0,0,0,0,2.2892,2.2897,2.2929,2.2927,2.2925,2.2937,2.2947,2.2983,2.2914,2.2917,2.2908,2.2905,2.2933,2.2935,2.2945,2.3007,2.3008,2.2943,2.2945,2.2946,2.2947,0,0,0,0,0,0,0,2.289,2.2896,2.2959,2.2929,2.2927,2.2912,2.2914,2.2954,2.294,2.2917,2.2913,2.2916,2.2931,2.2942,2.2945,2.3009,2.2943,2.2946,2.2948,2.2949,2.3131,2.3134,0,0,0,0,0,0,2.2891,2.2894,2.2959,2.296,2.2901,2.2916,2.2917,2.2936,2.2939,2.2937,2.2918,2.2913,2.2938,2.2941,2.2945,2.3032,2.2946,2.2949,2.2951,2.3129,2.3132,2.3135,0,0,0,0,0,0,2.289,2.2897,2.2958,2.2926,2.2932,2.292,2.2941,2.2938,2.2948,2.294,2.2937,2.2932,2.2936,2.2941,2.2991,2.3032,2.2951,2.2954,2.3125,2.313,2.3134,2.3205,0,0,0,0,0,0,2.2887,2.2897,2.2926,2.2927,2.2934,2.3004,2.2944,2.294,2.2954,2.2948,2.2952,2.295,2.2934,2.2987,2.2995,2.3035,2.2956,2.3122,2.3127,2.3132,2.3199,2.3212,2.3222,0,0,0,0,0,2.2884,2.2945,2.2928,2.2936,2.297,2.3007,2.3011,2.2991,2.2958,2.2986,2.298,2.295,2.3026,2.2993,2.3001,2.3043,2.3119,2.3126,2.3132,2.3194,2.3209,2.3222,0,0,0,0,0,0,2.295,2.2945,2.2925,2.2989,2.2999,2.2997,2.3032,2.3007,2.3027,2.302,2.2994,2.2995,2.3051,2.3051,2.3015,2.3114,2.3067,2.3075,2.3111,2.3125,2.3137,2.3135,2.2959,0,0,0,0,0,2.2971,2.3002,2.2996,2.3053,2.3059,2.3045,2.306,2.3043,2.3052,2.3056,2.3055,2.3064,2.309,2.3108,2.3131,2.3199,2.3199,2.3232,2.3243,2.3252,2.326,2.3295,2.3309,2.3156,2.3156,2.3156,0,0,2.3017,2.3018,2.3039,2.3066,2.3072,2.3103,2.3048,2.3085,2.3108,2.3062,2.3109,2.3108,2.3117,2.3177,2.3203,2.3179,2.3302,2.326,2.3268,2.3271,2.3303,2.3318,2.333,2.3161,2.316,2.3159,0,0,2.3115,2.312,2.3167,2.3173,2.3182,2.3172,2.3184,2.3185,2.3183,2.323,2.3196,2.3223,2.3268,2.3276,2.3285,2.3385,2.3358,2.3394,2.3453,2.3488,2.35,2.351,2.3545,2.3558,2.3401,2.3402,2.3402,0,2.3171,2.3218,2.3194,2.3233,2.3245,2.3204,2.3251,2.3259,2.3275,2.3284,2.3257,2.3312,2.3316,2.3376,2.34,2.341,2.3421,2.3393,2.35,2.351,2.352,2.3553,2.3566,2.3406,2.3405,2.3405,2.3404,0,2.3285,2.3317,2.3354,2.3371,2.3387,2.343,2.3412,2.3432,2.3414,2.3406,2.3454,2.3456,2.3479,2.3492,2.3475,2.355,2.3534,2.3504,2.3456,2.3539,2.357,2.3582,2.3412,2.341,2.3409,2.3408,0,0,2.3426,2.3428,2.3442,2.3448,2.3455,2.3479,2.352,2.3541,2.3558,2.3571,2.3603,2.3642,2.3613,2.3624,2.3607,2.3638,2.3716,2.3603,2.3603,2.3624,2.3798,2.3821,2.3836,2.3698,2.37,2.3702,2.3797,0,2.3523,2.3592,2.3572,2.3641,2.367,2.3631,2.3666,2.3673,2.3667,2.3691,2.3684,2.3712,2.3672,2.3679,2.3707,2.3701,2.3751,2.3693,2.3728,2.3729,2.3727,2.3852,2.3876,2.3966,2.3809,2.3811,2.3812,0,2.3646,2.3662,2.3735,2.3735,2.3746,2.3778,2.3796,2.3819,2.3826,2.3819,2.3831,2.3808,2.3846,2.3798,2.3851,2.3812,2.3825,2.3824,2.3827,2.3829,2.3776,2.3858,2.3994,2.4007,2.3831,2.383,2.3828,0,2.3741,2.3782,2.383,2.3836,2.3838,2.3861,2.3863,2.3867,2.3881,2.3896,2.3905,2.3925,2.3936,2.3951,2.3933,2.39,2.3988,2.3939,2.3984,2.3984,2.4004,2.4003,2.4145,2.4013,2.4013,2.4012,2.4012,0,2.3852,2.3897,2.3872,2.3902,2.3951,2.3927,2.3976,2.3974,2.3978,2.4005,2.3973,2.4,2.3974,2.3999,2.3985,2.403,2.4035,2.403,2.4026,2.4033,2.4034,2.4041,2.4035,2.4016,2.4015,2.4014,2.4014,0,2.3967,2.3952,2.4002,2.3999,2.3999,2.4036,2.4033,2.406,2.405,2.4086,2.4093,2.4079,2.4106,2.4089,2.4117,2.4107,2.4166,2.4153,2.4164,2.4161,2.4206,2.4202,2.4357,2.4376,2.4232,2.4233,2.4235,0,2.4039,2.4072,2.4073,2.4089,2.4093,2.4119,2.4133,2.411,2.4126,2.4136,2.4161,2.4185,2.4203,2.4248,2.424,2.426,2.4248,2.4301,2.4251,2.4256,2.4248,2.4246,2.4249,2.4311,2.4313,2.4314,2.4315,0,2.4167,2.4157,2.4179,2.4197,2.4215,2.4228,2.4239,2.4254,2.4231,2.425,2.4277,2.4291,2.4319,2.4343,2.436,2.4361,2.4334,2.4331,2.4342,2.435,2.4354,2.4352,2.4191,2.4327,2.4326,2.4325,2.4325,2.4324,2.4262,2.429,2.4294,2.4319,2.4324,2.4335,2.436,2.4353,2.4375,2.4396,2.4381,2.4413,2.4417,2.4437,2.4442,2.4466,2.4444,2.4461,2.4465,2.447,2.4476,2.435,2.4469,2.4469,2.4468,2.4468,2.4468,0,2.4388,2.4388,2.4411,2.4427,2.4446,2.4419,2.4429,2.4447,2.4475,2.4482,2.45,2.4531,2.4553,2.4547,2.4567,2.4588,2.4576,2.4594,2.4592,2.4593,2.4494,2.4482,2.4603,2.4603,2.4603,2.4603,2.4603,2.4603,2.4456,2.4501,2.4492,2.454,2.454,2.4571,2.4579,2.4588,2.4593,2.4629,2.4647,2.4643,2.4644,2.4664,2.4683,2.4681,2.4689,2.4712,2.4705,2.4613,2.46,2.4587,2.4575,2.4714,2.4714,2.4801,2.4802,2.4803]}]]